Location: Casilda
(33.0440°S, 61.1680°W)
Time: 22:39:13
(UTC-03:00)

ISS - Pass Details

Date: 14 June 2018
Orbit: 402 x 406 km, 51.6° (Epoch: 18 June)

Event Time Altitude Azimuth Distance (km) Brightness Sun altitude
Exits shadow 07:11:03 12° 211° (SSW) 1,367 -1.6 -11.2°
Maximum altitude 07:13:57 43° 140° (SE) 592 -2.9 -10.7°
Drops below altitude 10° 07:17:07 10° 66° (ENE) 1,474 0.7 -10.1°
Sets 07:19:15 0° 59° (ENE) 2,328 2.1 -9.6°
